Regional Weather Roundup
Issued by NWS

Home | Current Version | Previous Version | Text Only | Print | Product List | Glossary Off
Versions: 1 2 3 4 5 6 7 8 9 10 11 12 13 14 15 16 17 18 19 20 21 22 23 24 25 26 27 28 29 30 31 32 33 34 35 36 37 38 39 40 41 42 43 44 45 46 47 48 49 50

000
ASUS43 KMPX 192301
RWRMN
WEATHER ROUNDUP FOR MINNESOTA
NATIONAL WEATHER SERVICE TWIN CITIES/CHANHASSEN MN
600 PM CDT SUN OCT 19 2014


NOTE: "FAIR" INDICATES FEW OR NO CLOUDS BELOW 12,000 FEET WITH NO
SIGNIFICANT WEATHER AND/OR OBSTRUCTIONS TO VISIBILITY. N/A MEANS
CURRENT SKY AND/OR WEATHER CONDITIONS ARE NOT AVAILABLE.

MNZ060>063-068>070-200000-
   Twin Cities Metro

CITY           SKY/WX    TMP DP  RH WIND       PRES   REMARKS
TWIN CITIES    PTCLDY    68  44  42 W8        29.77S
ST PAUL        CLEAR     66  44  45 W9        29.77F
CRYSTAL        CLEAR     68  44  42 W8        29.76S
BLAINE         CLEAR     70  45  40 W8        29.76S
LAKEVILLE      CLEAR     64  45  48 SW3       29.78S
EDEN PRAIRIE   CLEAR     67  44  43 W7        29.77S
SOUTH ST PAUL  CLEAR     67  44  43 W5        29.77S
LAKE ELMO      FAIR      63  46  55 W5        29.78S
$$
MNZ001>005-007-008-013>017-022>024-027-028-200000-
   Northwest Minnesota

CITY           SKY/WX    TMP DP  RH WIND       PRES   REMARKS
BEMIDJI        CLEAR     57  42  57 NW12G20   29.81R
HALLOCK        CLEAR     63  43  48 NW5       29.83S
ROSEAU         CLEAR     59  45  58 W7        29.82R
WARROAD        CLEAR     57  45  62 NW10      29.82R
THIEF RVR FALL CLEAR     61  43  51 NW10      29.85R
CROOKSTON      CLEAR     61  45  55 N9        29.86R
FOSSTON        CLEAR     61  41  48 NW10G21   29.85R
DETROIT LAKES  CLEAR     61  41  48 NW14      29.86R
MOORHEAD       CLEAR     66  37  34 N10       29.86R
PARK RAPIDS    CLEAR     60  42  51 NW15      29.81R
MAHNOMEN       FAIR      61  42  50 NW18      29.85R
$$
MNZ006-009>011-018-025>026-200000-
   North Central Minnesota

CITY           SKY/WX    TMP DP  RH WIND       PRES   REMARKS
BAUDETTE       CLEAR     54  42  64 NW7       29.80R
FLAG ISLAND    CLOUDY    55  43  62 NW17      29.79R
INTL FALLS     MOCLDY    53  41  63 N8        29.77R
WASKISH        PTCLDY    57  45  62 NW7       29.80R
BIG FORK       PTCLDY    59  41  51 N7        29.77R
LONGVILLE      CLEAR     61  43  51 NW9       29.78R
GRAND RAPIDS   CLEAR     59  39  47 NW16      29.76R
CRANE LAKE     CLOUDY    54  43  66 NW8       29.76R
ORR            PTCLDY    55  41  58 NW7       29.73R
COOK           CLOUDY    57  43  58 NW8       29.75R
WALKER         FAIR      60  41  50 NW8       29.78S
$$
MNZ012-019>021-037-200000-
   Northeast Minnesota

CITY           SKY/WX    TMP DP  RH WIND       PRES   REMARKS
DULUTH         PTCLDY    61  42  49 W10       29.72R
ELY            CLOUDY    55  41  58 W5        29.72R
HIBBING        CLEAR     60  40  47 NW14G22   29.74R
EVELETH        PTCLDY   N/A N/A N/A W7        29.74
DULUTH HARBOR  CLEAR     63  46  55 SW9       29.72R
TWO HARBORS    CLEAR     63  34  34 CALM      29.70R
SILVER BAY     CLEAR     59  43  55 CALM      29.70R
GRAND MARAIS     N/A     47  41  80 CALM      29.72R
G MARAIS ARPRT MOCLDY    45  37  76 SW3       29.73R
$$
MNZ029>031-032-039>041-046>048-054>057-064-200000-
   West Central Minnesota

CITY           SKY/WX    TMP DP  RH WIND       PRES   REMARKS
FERGUS FALLS   CLEAR     64  36  34 N16G24    29.85R
WHEATON        CLEAR     66  39  37 NW12G18   29.87R
MORRIS         CLEAR     68  39  34 NW17G23   29.83R
ALEXANDRIA     CLEAR     65  40  39 N15G23    29.84R
ELBOW LAKE     FAIR      64  40  40 NW14G24   29.84R
WADENA         CLEAR     61  43  51 NW13G21   29.82R
GLENWOOD       CLEAR     64  41  42 NW10      29.84R
APPLETON       CLEAR     70  36  28 NW12      29.83R
BENSON         CLEAR     66  41  39 N8        29.83R
ORTONVILLE     CLEAR     70  37  30 NW12G21   29.85R
MADISON        CLEAR     72  37  28 NW15      29.85R
WILLMAR          N/A     68  37  32 NW14      29.83R
$$
MNZ033>034-036-042>043-049>051-058-059-200000-
   Central Minnesota

CITY           SKY/WX    TMP DP  RH WIND       PRES   REMARKS
ST CLOUD       CLEAR     69  43  38 W14       29.78R
SAUK CENTRE    FAIR      65  42  43 NW14      29.82R
PAYNESVILLE    CLEAR     63  41  44 W10       29.82R
AITKIN         CLEAR     64  43  45 NW6       29.75R
PINE RIVER     CLEAR     63  43  48 NW10G16   29.82R
BRAINERD       CLEAR     62  40  44 NW14      29.79R
STAPLES        CLEAR     61  39  44 NW15G22   29.81R
LONG PRAIRIE   FAIR      63  41  45 W10       29.82R
LITTLE FALLS   CLEAR     63  37  39 W12G18    29.79R
LITCHFIELD     CLEAR     66  43  42 W8        29.81R
BUFFALO        CLEAR     66  42  41 W8        29.79R
MAPLE LAKE     CLEAR     67  45  45 W10       29.80R
$$
MNZ037-044-045-052-053-200000-
   East Central Minnesota

CITY           SKY/WX    TMP DP  RH WIND       PRES   REMARKS
PRINCETON      CLEAR     66  45  45 W7        29.77R
MORA           CLEAR     63  43  48 NW3       29.76S
CAMBRIDGE      CLEAR     68  48  49 W6        29.74S
RUSH CITY      PTCLDY    63  45  52 CALM      29.75S
MOOSE LAKE     CLEAR     63  41  45 W5        29.72S
HINCKLEY       FAIR      61  46  59 CALM      29.75S
CLOQUET        CLEAR     61  43  51 W5        29.73S
MCGREGOR       CLEAR     63  41  45 NW13G20   29.75R
$$
MNZ071>073-080-081-089-090-097-098-200000-
   Southwest Minnesota

CITY           SKY/WX    TMP DP  RH WIND       PRES   REMARKS
MONTEVIDEO     CLEAR     72  41  33 N12G17    29.84R
GRANITE FALLS  CLEAR     68  40  35 NW10      29.85R
CANBY          CLEAR     68  42  38 W10       29.87R
MARSHALL       CLEAR     72  36  26 NW14      29.84R
REDWOOD FALLS  CLEAR     70  38  31 NW10      29.82R
OLIVIA         CLEAR     70  41  35 NW10G16   29.82R
PIPESTONE      CLEAR     70  36  28 N8        29.88R
WINDOM         CLEAR     70  39  32 NW9       29.85R
WORTHINGTON    CLEAR     68  39  34 NW10      29.87S
JACKSON        CLEAR     68  43  40 W7        29.86S
TRACY          CLEAR     70  39  32 NW6       29.86R
SLAYTON        CLEAR     69  35  28 NW13      29.88R
$$
MNZ065>067-074>077-082>085-091>093-200000-
   South Central Minnesota

CITY           SKY/WX    TMP DP  RH WIND       PRES   REMARKS
MANKATO        CLEAR     70  43  37 NW8       29.80S
NEW ULM        CLEAR     68  43  40 NW10      29.81R
ST JAMES       CLEAR     72  39  30 W10       29.83R
FAIRMONT       CLEAR     70  43  37 W12       29.83S
GLENCOE        CLEAR     69  46  44 W9        29.79R
FARIBAULT      CLEAR     64  46  52 SW3       29.80F
OWATONNA       CLEAR     66  43  42 SW5       29.81S
WASECA         CLEAR     63  37  39 SW6       29.83S
ALBERT LEA     CLEAR     66  45  45 SW7       29.83R
$$
MNZ078>079-086>088-094>096-200000-
   Southeast Minnesota

CITY           SKY/WX    TMP DP  RH WIND       PRES   REMARKS
ROCHESTER      CLEAR     64  45  49 SW13      29.83R
RED WING       PTCLDY    66  43  42 W6        29.77S
STANTON        CLEAR     64  45  49 SW6       29.78S
DODGE CENTER   CLEAR     63  46  55 W9        29.82S
WINONA         PTCLDY    63  45  51 SW5       29.80F
AUSTIN         CLEAR     64  46  52 W9        29.83S
PRESTON        CLEAR     63  44  51 SW12      29.83F
$$
ABBREVIATIONS USED IN REMARKS
   TC - TEMPERATURES IN CELSIUS
  WCI - WIND CHILL INDEX
   HX - HEAT INDEX
  VSB - VISIBILITY
$$


USA.gov is the U.S. government's official web portal to all federal, state and local government web resources and services.